QPF
0.00 0.00 0.00 0.00 0.00 0.00 0.00 0.00 0.00 0.00 0.00 0.00 0.00 0.00 0.00 0.00 0.00 0.00 0.00 0.00 0.00 0.00 0.00 0.00 0.00 0.00 0.00 0.01 0.01 0.02 0.02 0.02 0.03 0.03 0.04 0.05 0.05 0.06 0.06 0.06 0.06 0.06 0.04 0.02 0.01 0.00 0.00 0.00 0.00 0.00 0.00 0.00 0.00 0.00 0.00 0.00 0.00 0.00 0.00 0.00 0.00 0.00 0.00
0.00 0.00 0.00 0.00 0.00 0.00 0.00 0.00 0.00 0.00 0.00 0.00 0.00 0.00 0.00 0.00 0.00 0.00 0.00 0.00 0.00 0.00 0.00 0.00 0.00 0.00 0.00 0.00 0.00 0.00 0.00 0.00 0.00 0.00 0.01 0.01 0.01 0.01 0.01 0.01 0.02 0.02 0.02 0.01 0.00 0.00 0.00 0.00 0.00 0.00 0.00 0.00 0.00 0.00 0.00 0.00 0.00 0.00 0.00 0.00 0.00 0.00 0.00
0.00 0.00 0.00 0.00 0.00 0.00 0.00 0.00 0.00 0.00 0.00 0.00 0.00 0.00 0.00 0.00 0.00 0.00 0.00 0.00 0.00 0.00 0.00 0.00 0.00 0.00 0.00 0.00 0.00 0.00 0.00 0.00 0.00 0.00 0.00 0.00 0.00 0.00 0.00 0.01 0.01 0.01 0.01 0.01 0.00 0.00 0.00 0.00 0.00 0.00 0.00 0.00 0.00 0.00 0.00 0.00 0.00 0.00 0.00 0.00 0.00 0.00 0.00
0.00 0.00 0.00 0.00 0.00 0.00 0.00 0.00 0.00 0.00 0.00 0.00 0.00 0.00 0.00 0.00 0.00 0.00 0.00 0.00 0.00 0.00 0.00 0.00 0.00 0.00 0.00 0.00 0.00 0.00 0.00 0.00 0.00 0.00 0.00 0.00 0.00 0.00 0.00 0.00 0.00 0.00 0.00 0.00 0.00 0.00 0.00 0.00 0.00 0.00 0.00 0.00 0.00 0.00 0.00 0.00 0.00 0.00 0.00 0.00 0.00 0.00 0.00
0.00 0.00 0.00 0.00 0.00 0.00 0.00 0.00 0.00 0.00 0.00 0.00 0.00 0.00 0.00 0.00 0.00 0.00 0.00 0.00 0.00 0.00 0.00 0.00 0.00 0.00 0.00 0.00 0.00 0.00 0.00 0.00 0.00 0.00 0.00 0.00 0.00 0.00 0.00 0.00 0.00 0.00 0.00 0.00 0.00 0.00 0.00 0.00 0.00 0.00 0.00 0.00 0.00 0.00 0.00 0.00 0.00 0.00 0.00 0.00 0.00 0.00 0.00
0.01 0.01 0.00 0.00 0.00 0.00 0.00 0.00 0.00 0.00 0.00 0.00 0.00 0.00 0.00 0.00 0.00 0.00 0.00 0.00 0.00 0.00 0.00 0.00 0.00 0.00 0.00 0.00 0.00 0.00 0.00 0.00 0.00 0.00 0.00 0.00 0.00 0.00 0.00 0.00 0.00 0.00 0.00 0.00 0.00 0.00 0.00 0.00 0.00 0.00 0.00 0.00 0.00 0.00 0.00 0.00 0.00 0.00 0.00 0.00 0.00 0.00 0.00
0.01 0.01 0.01 0.00 0.00 0.00 0.00 0.00 0.00 0.00 0.00 0.00 0.00 0.00 0.00 0.00 0.00 0.00 0.00 0.00 0.00 0.00 0.00 0.00 0.00 0.00 0.00 0.00 0.00 0.00 0.00 0.00 0.00 0.00 0.00 0.00 0.00 0.00 0.00 0.00 0.00 0.00 0.00 0.00 0.00 0.00 0.00 0.00 0.00 0.00 0.00 0.00 0.00 0.00 0.00 0.00 0.00 0.00 0.00 0.00 0.00 0.00 0.00
0.01 0.01 0.01 0.00 0.00 0.00 0.00 0.00 0.00 0.00 0.00 0.00 0.00 0.00 0.00 0.00 0.00 0.00 0.00 0.00 0.00 0.00 0.00 0.00 0.00 0.00 0.00 0.00 0.00 0.00 0.00 0.00 0.00 0.00 0.00 0.00 0.00 0.00 0.00 0.00 0.00 0.00 0.00 0.00 0.00 0.00 0.00 0.00 0.00 0.00 0.00 0.00 0.00 0.00 0.00 0.00 0.00 0.00 0.00 0.00 0.00 0.00 0.00
0.01 0.01 0.01 0.00 0.00 0.00 0.00 0.00 0.00 0.00 0.00 0.00 0.00 0.00 0.00 0.00 0.00 0.00 0.00 0.00 0.00 0.00 0.00 0.00 0.00 0.00 0.00 0.00 0.00 0.00 0.00 0.00 0.00 0.00 0.00 0.00 0.00 0.00 0.00 0.00 0.00 0.00 0.00 0.00 0.00 0.00 0.00 0.00 0.00 0.00 0.00 0.00 0.00 0.00 0.00 0.00 0.00 0.00 0.00 0.00 0.00 0.00 0.00
0.00 0.00 0.00 0.00 0.00 0.00 0.00 0.00 0.00 0.00 0.00 0.00 0.00 0.00 0.00 0.00 0.00 0.00 0.00 0.00 0.00 0.00 0.00 0.00 0.00 0.00 0.00 0.00 0.00 0.00 0.00 0.00 0.00 0.00 0.00 0.00 0.00 0.00 0.00 0.00 0.00 0.00 0.00 0.00 0.00 0.00 0.00 0.00 0.00 0.00 0.00 0.00 0.00 0.00 0.00 0.00 0.00 0.00 0.00 0.00 0.00 0.00 0.00
0.00 0.00 0.00 0.00 0.00 0.00 0.00 0.00 0.00 0.00 0.00 0.00 0.00 0.00 0.00 0.00 0.00 0.00 0.00 0.00 0.00 0.00 0.00 0.00 0.00 0.00 0.00 0.00 0.00 0.00 0.00 0.00 0.00 0.00 0.00 0.00 0.00 0.00 0.00 0.01 0.01 0.01 0.00 0.00 0.00 0.00 0.00 0.00 0.00 0.00 0.00 0.00 0.00 0.00 0.00 0.00 0.00 0.00 0.00 0.00 0.00 0.00 0.00
0.00 0.00 0.00 0.00 0.00 0.00 0.00 0.00 0.00 0.00 0.00 0.00 0.00 0.00 0.00 0.00 0.00 0.00 0.00 0.00 0.00 0.00 0.00 0.00 0.00 0.00 0.00 0.00 0.00 0.00 0.00 0.00 0.00 0.00 0.00 0.00 0.00 0.00 0.00 0.00 0.01 0.01 0.01 0.01 0.01 0.00 0.00 0.00 0.00 0.00 0.00 0.00 0.00 0.00 0.00 0.00 0.00 0.00 0.00 0.00 0.00 0.00 0.00
0.00 0.00 0.00 0.00 0.00 0.00 0.00 0.00 0.00 0.00 0.00 0.00 0.00 0.00 0.00 0.01 0.00 0.00 0.00 0.00 0.00 0.00 0.00 0.00 0.00 0.00 0.00 0.00 0.00 0.00 0.00 0.00 0.00 0.00 0.00 0.00 0.00 0.00 0.00 0.00 0.00 0.00 0.01 0.01 0.01 0.01 0.01 0.00 0.00 0.00 0.00 0.00 0.00 0.00 0.00 0.00 0.00 0.00 0.00 0.00 0.00 0.01 0.00
0.00 0.00 0.00 0.00 0.00 0.00 0.00 0.00 0.00 0.00 0.00 0.00 0.00 0.00 0.00 0.01 0.00 0.00 0.00 0.00 0.00 0.00 0.00 0.00 0.00 0.00 0.00 0.00 0.00 0.00 0.00 0.00 0.00 0.01 0.01 0.01 0.01 0.01 0.01 0.01 0.00 0.00 0.00 0.00 0.01 0.01 0.01 0.01 0.00 0.00 0.00 0.00 0.00 0.00 0.01 0.01 0.01 0.00 0.00 0.01 0.00 0.00 0.00
0.00 0.00 0.00 0.00 0.00 0.00 0.00 0.00 0.00 0.00 0.00 0.00 0.00 0.00 0.00 0.00 0.00 0.00 0.00 0.00 0.00 0.00 0.00 0.00 0.00 0.00 0.00 0.00 0.00 0.00 0.00 0.00 0.01 0.01 0.01 0.01 0.01 0.01 0.00 0.00 0.00 0.00 0.00 0.00 0.00 0.00 0.01 0.00 0.00 0.00 0.00 0.00 0.00 0.00 0.01 0.01 0.01 0.01 0.01 0.01 0.01 0.00 0.00
0.00 0.00 0.00 0.00 0.00 0.00 0.00 0.00 0.00 0.00 0.00 0.00 0.00 0.00 0.00 0.00 0.00 0.00 0.00 0.00 0.00 0.00 0.00 0.00 0.00 0.00 0.00 0.00 0.00 0.00 0.00 0.00 0.00 0.00 0.00 0.00 0.00 0.01 0.00 0.01 0.00 0.00 0.01 0.00 0.01 0.00 0.00 0.00 0.00 0.00 0.00 0.00 0.00 0.00 0.01 0.01 0.01 0.01 0.01 0.01 0.01 0.01 0.00
0.00 0.00 0.00 0.00 0.00 0.00 0.00 0.00 0.00 0.00 0.00 0.00 0.00 0.00 0.00 0.00 0.00 0.00 0.00 0.00 0.00 0.00 0.00 0.00 0.00 0.00 0.00 0.00 0.00 0.00 0.00 0.00 0.00 0.00 0.00 0.00 0.00 0.00 0.00 0.00 0.00 0.00 0.00 0.00 0.00 0.01 0.01 0.01 0.01 0.02 0.02 0.03 0.06 0.06 0.07 0.08 0.06 0.04 0.02 0.02 0.02 0.01 0.00
0.00 0.00 0.00 0.00 0.00 0.00 0.00 0.00 0.00 0.00 0.00 0.00 0.00 0.00 0.00 0.00 0.00 0.00 0.00 0.00 0.00 0.00 0.00 0.00 0.00 0.00 0.00 0.00 0.00 0.00 0.00 0.00 0.00 0.01 0.00 0.00 0.00 0.00 0.00 0.00 0.00 0.00 0.00 0.00 0.00 0.00 0.00 0.00 0.00 0.00 0.01 0.02 0.05 0.05 0.08 0.12 0.13 0.07 0.03 0.04 0.03 0.02 0.01
0.00 0.00 0.00 0.00 0.00 0.00 0.00 0.00 0.00 0.00 0.00 0.00 0.00 0.00 0.00 0.00 0.00 0.00 0.00 0.00 0.00 0.00 0.00 0.00 0.00 0.00 0.00 0.00 0.00 0.00 0.00 0.00 0.00 0.00 0.00 0.00 0.00 0.00 0.00 0.00 0.00 0.00 0.00 0.00 0.00 0.00 0.00 0.00 0.00 0.00 0.00 0.00 0.00 0.00 0.01 0.03 0.06 0.06 0.05 0.05 0.03 0.03 0.02
0.00 0.00 0.00 0.00 0.00 0.00 0.00 0.00 0.00 0.00 0.00 0.00 0.00 0.00 0.00 0.00 0.00 0.00 0.00 0.00 0.00 0.00 0.00 0.00 0.00 0.00 0.00 0.00 0.00 0.00 0.00 0.00 0.00 0.01 0.01 0.01 0.01 0.01 0.01 0.00 0.00 0.00 0.00 0.01 0.00 0.00 0.00 0.00 0.00 0.00 0.00 0.00 0.00 0.00 0.00 0.01 0.02 0.03 0.03 0.04 0.04 0.03 0.03
0.00 0.00 0.00 0.00 0.00 0.00 0.00 0.00 0.00 0.00 0.00 0.00 0.00 0.00 0.00 0.00 0.00 0.00 0.00 0.00 0.00 0.00 0.00 0.00 0.00 0.00 0.00 0.00 0.00 0.00 0.00 0.00 0.01 0.01 0.01 0.01 0.01 0.01 0.00 0.00 0.01 0.00 0.00 0.01 0.01 0.01 0.00 0.00 0.00 0.00 0.00 0.00 0.00 0.00 0.00 0.01 0.01 0.02 0.02 0.03 0.03 0.03 0.03
0.00 0.00 0.00 0.00 0.00 0.00 0.00 0.00 0.00 0.00 0.00 0.00 0.00 0.00 0.00 0.00 0.00 0.00 0.00 0.00 0.00 0.00 0.00 0.00 0.00 0.00 0.00 0.00 0.00 0.00 0.00 0.00 0.00 0.01 0.01 0.01 0.00 0.00 0.00 0.01 0.01 0.01 0.00 0.00 0.00 0.00 0.00 0.00 0.00 0.00 0.00 0.00 0.00 0.00 0.00 0.00 0.01 0.01 0.01 0.02 0.02 0.03 0.03
0.00 0.00 0.00 0.00 0.00 0.00 0.00 0.00 0.00 0.00 0.00 0.00 0.00 0.00 0.00 0.00 0.00 0.00 0.00 0.00 0.00 0.00 0.00 0.00 0.00 0.00 0.00 0.00 0.00 0.00 0.00 0.00 0.00 0.01 0.01 0.00 0.01 0.01 0.01 0.00 0.00 0.00 0.01 0.01 0.00 0.00 0.01 0.00 0.00 0.00 0.00 0.00 0.00 0.00 0.00 0.00 0.01 0.01 0.01 0.01 0.02 0.02 0.03
0.00 0.00 0.00 0.00 0.00 0.00 0.00 0.00 0.00 0.00 0.00 0.00 0.00 0.00 0.00 0.00 0.00 0.00 0.00 0.00 0.00 0.00 0.00 0.00 0.00 0.00 0.00 0.01 0.01 0.00 0.00 0.00 0.00 0.00 0.00 0.00 0.00 0.00 0.00 0.00 0.00 0.00 0.00 0.00 0.00 0.00 0.00 0.00 0.00 0.00 0.00 0.00 0.00 0.00 0.00 0.00 0.00 0.01 0.01 0.02 0.02 0.02 0.02
0.00 0.00 0.00 0.00 0.00 0.00 0.00 0.00 0.00 0.00 0.00 0.00 0.00 0.00 0.00 0.00 0.00 0.00 0.00 0.00 0.00 0.00 0.00 0.00 0.00 0.00 0.00 0.00 0.00 0.00 0.00 0.00 0.00 0.00 0.00 0.00 0.00 0.00 0.00 0.00 0.00 0.00 0.00 0.01 0.01 0.01 0.01 0.01 0.01 0.01 0.01 0.01 0.01 0.01 0.01 0.01 0.01 0.01 0.01 0.02 0.02 0.02 0.02
0.00 0.00 0.00 0.00 0.00 0.00 0.00 0.00 0.00 0.00 0.00 0.00 0.00 0.00 0.00 0.00 0.00 0.00 0.00 0.00 0.00 0.00 0.00 0.00 0.00 0.00 0.00 0.00 0.00 0.01 0.01 0.01 0.00 0.00 0.00 0.00 0.00 0.00 0.00 0.00 0.00 0.00 0.01 0.01 0.01 0.01 0.01 0.01 0.00 0.00 0.00 0.00 0.00 0.01 0.01 0.01 0.01 0.01 0.01 0.01 0.02 0.03 0.02
0.00 0.00 0.00 0.00 0.00 0.00 0.00 0.00 0.00 0.00 0.00 0.00 0.00 0.00 0.00 0.00 0.00 0.00 0.00 0.00 0.00 0.00 0.00 0.00 0.00 0.00 0.00 0.01 0.01 0.00 0.00 0.00 0.00 0.00 0.00 0.00 0.00 0.00 0.00 0.00 0.00 0.00 0.01 0.01 0.01 0.01 0.01 0.01 0.01 0.01 0.01 0.01 0.01 0.01 0.00 0.00 0.01 0.01 0.01 0.00 0.01 0.02 0.03
0.00 0.00 0.00 0.00 0.00 0.00 0.00 0.00 0.00 0.00 0.00 0.00 0.00 0.00 0.00 0.00 0.00 0.00 0.00 0.00 0.00 0.00 0.00 0.01 0.01 0.00 0.00 0.00 0.00 0.00 0.00 0.00 0.00 0.00 0.00 0.00 0.00 0.00 0.00 0.00 0.00 0.00 0.00 0.00 0.00 0.01 0.00 0.01 0.01 0.01 0.00 0.00 0.00 0.00 0.00 0.00 0.01 0.01 0.01 0.00 0.01 0.03 0.03
0.00 0.00 0.00 0.00 0.00 0.00 0.00 0.00 0.00 0.00 0.00 0.00 0.00 0.01 0.01 0.00 0.00 0.00 0.00 0.00 0.00 0.01 0.01 0.01 0.00 0.00 0.00 0.00 0.00 0.00 0.00 0.00 0.00 0.00 0.00 0.00 0.00 0.00 0.00 0.00 0.00 0.00 0.00 0.00 0.00 0.00 0.01 0.00 0.00 0.00 0.00 0.00 0.00 0.01 0.00 0.00 0.01 0.01 0.01 0.01 0.01 0.02 0.02
0.00 0.00 0.00 0.00 0.00 0.00 0.00 0.00 0.00 0.00 0.00 0.00 0.01 0.00 0.00 0.00 0.00 0.00 0.01 0.01 0.01 0.01 0.01 0.00 0.00 0.00 0.00 0.00 0.00 0.00 0.00 0.00 0.00 0.00 0.00 0.00 0.00 0.00 0.00 0.00 0.00 0.00 0.00 0.00 0.00 0.00 0.00 0.01 0.00 0.01 0.01 0.01 0.01 0.00 0.01 0.01 0.01 0.01 0.01 0.02 0.02 0.02 0.01
0.00 0.00 0.00 0.00 0.00 0.00 0.00 0.00 0.00 0.00 0.00 0.00 0.00 0.00 0.00 0.00 0.00 0.00 0.00 0.00 0.00 0.01 0.01 0.00 0.00 0.00 0.00 0.00 0.00 0.00 0.00 0.00 0.00 0.00 0.00 0.00 0.00 0.00 0.00 0.00 0.00 0.00 0.00 0.00 0.00 0.00 0.00 0.00 0.01 0.01 0.01 0.01 0.01 0.01 0.00 0.01 0.01 0.01 0.01 0.02 0.01 0.01 0.00
0.00 0.00 0.00 0.00 0.00 0.00 0.00 0.00 0.00 0.00 0.00 0.00 0.00 0.00 0.00 0.00 0.00 0.00 0.00 0.00 0.00 0.01 0.01 0.00 0.00 0.00 0.00 0.00 0.00 0.00 0.00 0.00 0.00 0.00 0.00 0.00 0.00 0.00 0.00 0.00 0.00 0.00 0.00 0.00 0.00 0.00 0.00 0.00 0.00 0.00 0.01 0.01 0.01 0.01 0.01 0.01 0.01 0.01 0.01 0.01 0.01 0.01 0.00
0.00 0.00 0.00 0.00 0.00 0.00 0.00 0.00 0.00 0.00 0.00 0.00 0.00 0.00 0.00 0.00 0.00 0.00 0.00 0.00 0.01 0.01 0.00 0.00 0.00 0.00 0.00 0.00 0.00 0.00 0.00 0.00 0.00 0.00 0.00 0.00 0.00 0.00 0.00 0.00 0.00 0.00 0.00 0.00 0.00 0.00 0.00 0.00 0.00 0.00 0.00 0.00 0.00 0.01 0.01 0.00 0.01 0.00 0.01 0.01 0.01 0.01 0.01
0.00 0.00 0.01 0.00 0.00 0.00 0.00 0.00 0.00 0.00 0.00 0.00 0.00 0.00 0.00 0.00 0.00 0.00 0.00 0.00 0.00 0.00 0.00 0.00 0.00 0.00 0.00 0.00 0.00 0.00 0.00 0.00 0.00 0.00 0.00 0.00 0.00 0.00 0.00 0.00 0.00 0.00 0.00 0.00 0.00 0.00 0.00 0.00 0.00 0.00 0.00 0.00 0.00 0.00 0.00 0.01 0.01 0.01 0.01 0.01 0.01 0.01 0.01
0.00 0.01 0.01 0.00 0.00 0.00 0.00 0.00 0.00 0.00 0.00 0.00 0.00 0.00 0.00 0.00 0.00 0.00 0.00 0.00 0.00 0.00 0.00 0.00 0.00 0.00 0.00 0.00 0.00 0.00 0.00 0.00 0.00 0.00 0.00 0.00 0.00 0.00 0.00 0.00 0.00 0.00 0.00 0.00 0.00 0.00 0.00 0.00 0.00 0.00 0.00 0.00 0.00 0.00 0.01 0.01 0.01 0.01 0.01 0.01 0.01 0.01 0.01
0.00 0.00 0.00 0.00 0.00 0.00 0.00 0.00 0.00 0.00 0.00 0.00 0.00 0.00 0.00 0.00 0.00 0.00 0.00 0.00 0.00 0.00 0.00 0.00 0.00 0.00 0.00 0.00 0.00 0.00 0.00 0.00 0.00 0.00 0.00 0.00 0.00 0.00 0.00 0.00 0.00 0.00 0.00 0.00 0.00 0.00 0.00 0.00 0.00 0.00 0.00 0.00 0.00 0.00 0.00 0.00 0.00 0.01 0.01 0.01 0.01 0.01 0.01
MSLP
1016.88 1016.56 1016.32 1016.28 1016.28 1016.32 1016.32 1016.32 1016.32 1016.28 1016.20 1016.12 1016.24 1016.28 1016.36 1016.44 1016.52 1016.56 1016.52 1016.52 1016.68 1016.84 1017.00 1017.12 1017.28 1017.40 1017.48 1017.52 1017.60 1017.52 1017.48 1017.48 1017.56 1017.64 1017.68 1017.60 1017.56 1017.48 1017.44 1017.52 1017.40 1017.00 1016.00 1015.80 1015.96 1015.88 1015.84 1015.96 1016.16 1016.32 1016.60 1016.60 1016.60 1016.80 1016.92 1017.08 1017.12 1017.20 1017.32 1017.36 1017.32 1017.24 1017.24
1017.60 1017.20 1016.80 1016.64 1016.64 1016.64 1016.64 1016.64 1016.60 1016.56 1016.48 1016.60 1016.68 1016.80 1016.80 1016.80 1016.76 1016.72 1016.76 1016.72 1016.80 1016.92 1017.00 1017.12 1017.24 1017.32 1017.44 1017.52 1017.64 1017.68 1017.60 1017.48 1017.40 1017.44 1017.44 1017.40 1017.40 1017.32 1017.20 1017.16 1017.16 1016.76 1016.36 1015.88 1016.04 1015.80 1015.76 1015.76 1016.00 1016.04 1015.84 1016.12 1016.08 1016.24 1016.44 1016.60 1016.68 1016.76 1016.80 1016.84 1016.80 1016.76 1016.64
1018.16 1017.80 1017.48 1017.32 1017.16 1016.96 1016.88 1016.84 1016.80 1016.80 1016.88 1016.96 1017.04 1017.04 1016.96 1016.96 1016.92 1016.88 1016.92 1016.96 1017.00 1017.12 1017.16 1017.32 1017.36 1017.44 1017.48 1017.48 1017.60 1017.64 1017.64 1017.56 1017.48 1017.36 1017.32 1017.32 1017.20 1017.12 1017.04 1016.96 1016.92 1016.84 1016.44 1016.16 1015.96 1015.92 1015.80 1015.72 1015.60 1015.52 1015.28 1015.64 1015.64 1015.64 1015.76 1016.00 1016.12 1016.28 1016.36 1016.40 1016.44 1016.36 1016.24
1018.56 1018.24 1018.04 1017.88 1017.72 1017.56 1017.36 1017.24 1017.12 1017.20 1017.32 1017.44 1017.44 1017.36 1017.28 1017.16 1017.12 1017.12 1017.20 1017.32 1017.40 1017.48 1017.60 1017.68 1017.76 1017.72 1017.72 1017.68 1017.72 1017.72 1017.56 1017.40 1017.32 1017.28 1017.20 1017.12 1017.16 1017.04 1016.96 1016.92 1016.84 1016.68 1016.52 1016.20 1016.00 1015.68 1015.80 1015.40 1015.24 1014.80 1015.44 1015.56 1015.52 1015.44 1015.48 1015.52 1015.56 1015.72 1015.88 1016.00 1016.08 1016.04 1016.00
1018.88 1018.60 1018.32 1018.28 1018.20 1018.12 1017.96 1017.80 1017.64 1017.64 1017.72 1017.76 1017.72 1017.64 1017.56 1017.52 1017.44 1017.40 1017.44 1017.48 1017.60 1017.72 1017.84 1017.92 1018.00 1018.00 1018.00 1018.00 1018.04 1017.80 1017.64 1017.40 1017.40 1017.44 1017.32 1017.24 1017.12 1017.04 1016.92 1016.88 1016.80 1016.56 1016.48 1016.20 1015.92 1015.56 1015.68 1015.48 1015.36 1015.32 1015.32 1015.32 1015.44 1015.40 1015.40 1015.44 1015.44 1015.44 1015.44 1015.52 1015.56 1015.60 1015.60
1019.40 1019.12 1018.88 1018.76 1018.76 1018.68 1018.60 1018.44 1018.32 1018.28 1018.24 1018.12 1018.00 1017.88 1017.80 1017.68 1017.60 1017.56 1017.60 1017.64 1017.68 1017.76 1017.84 1017.92 1018.00 1018.04 1018.04 1018.08 1018.08 1017.84 1017.64 1017.60 1017.68 1017.64 1017.56 1017.48 1017.36 1017.16 1017.04 1016.96 1016.88 1016.80 1016.60 1016.40 1015.96 1015.92 1015.84 1015.76 1015.68 1015.44 1015.28 1015.28 1015.40 1015.44 1015.28 1015.16 1015.16 1015.24 1015.28 1015.36 1015.36 1015.20 1015.24
1019.76 1019.48 1019.36 1019.20 1019.16 1019.12 1019.08 1018.96 1018.84 1018.68 1018.56 1018.36 1018.16 1018.04 1017.92 1017.84 1017.76 1017.76 1017.68 1017.68 1017.68 1017.68 1017.72 1017.80 1017.92 1017.96 1018.00 1018.08 1018.00 1017.96 1017.88 1017.76 1017.72 1017.64 1017.60 1017.48 1017.48 1017.44 1017.40 1017.20 1017.00 1016.84 1016.72 1016.52 1016.20 1015.92 1015.84 1015.76 1015.52 1015.48 1015.28 1015.12 1015.24 1015.28 1015.24 1015.16 1015.04 1014.88 1014.68 1014.72 1014.80 1014.64 1014.68
1020.00 1019.84 1019.80 1019.68 1019.56 1019.48 1019.40 1019.32 1019.16 1018.92 1018.84 1018.64 1018.36 1018.12 1018.08 1017.96 1018.00 1017.88 1017.80 1017.76 1017.76 1017.76 1017.84 1017.88 1017.92 1017.96 1018.00 1018.04 1018.04 1017.96 1017.88 1017.80 1017.68 1017.36 1017.32 1017.12 1017.16 1017.16 1017.24 1017.16 1016.96 1016.84 1016.64 1016.40 1016.16 1015.80 1015.56 1015.36 1015.20 1014.96 1014.80 1014.88 1015.04 1015.20 1015.12 1015.04 1015.12 1014.84 1014.48 1014.40 1014.16 1014.08 1014.12
1020.12 1020.04 1019.96 1019.72 1019.52 1019.48 1019.44 1019.48 1019.40 1019.40 1019.32 1018.92 1018.44 1018.24 1018.24 1018.16 1018.20 1018.12 1018.04 1018.04 1018.00 1018.00 1018.00 1018.00 1017.92 1017.96 1017.92 1018.00 1018.08 1018.08 1018.00 1017.92 1017.80 1017.76 1017.44 1017.20 1017.12 1017.16 1017.12 1017.04 1016.84 1016.64 1016.40 1016.12 1015.80 1015.36 1015.16 1015.12 1014.88 1014.68 1014.64 1014.64 1014.56 1014.60 1014.76 1014.64 1014.68 1014.44 1014.24 1014.20 1014.04 1013.60 1013.60
1020.24 1020.16 1020.04 1020.00 1019.80 1019.72 1019.60 1019.68 1019.68 1019.84 1019.52 1018.96 1018.60 1018.48 1018.44 1018.40 1018.36 1018.36 1018.36 1018.28 1018.28 1018.24 1018.24 1018.24 1018.24 1018.16 1018.16 1018.08 1017.96 1017.92 1017.88 1017.88 1017.84 1017.80 1017.68 1017.48 1017.28 1017.20 1017.12 1017.04 1016.88 1016.68 1016.40 1016.16 1015.92 1015.56 1015.32 1015.12 1014.76 1014.60 1014.56 1014.52 1014.44 1014.40 1014.40 1014.48 1014.64 1014.52 1014.20 1014.16 1014.00 1013.44 1013.32
1020.40 1020.28 1020.24 1020.28 1020.16 1020.00 1019.76 1019.76 1019.84 1019.84 1019.36 1019.00 1018.72 1018.60 1018.52 1018.44 1018.40 1018.36 1018.40 1018.40 1018.44 1018.52 1018.40 1018.36 1018.44 1018.36 1018.24 1018.16 1018.08 1018.00 1017.88 1017.76 1017.68 1017.56 1017.52 1017.48 1017.44 1017.32 1017.20 1017.08 1016.88 1016.72 1016.56 1016.36 1016.00 1015.64 1015.44 1015.16 1015.00 1014.92 1014.84 1014.76 1014.68 1014.60 1014.56 1014.44 1014.44 1014.36 1014.28 1014.16 1014.00 1013.44 1012.84
1020.40 1020.44 1020.44 1020.44 1020.36 1020.20 1019.92 1019.88 1020.00 1019.92 1019.52 1019.20 1018.96 1018.76 1018.64 1018.48 1018.40 1018.48 1018.56 1018.60 1018.80 1018.76 1018.68 1018.60 1018.52 1018.40 1018.36 1018.28 1018.16 1018.12 1018.04 1017.92 1017.80 1017.68 1017.56 1017.40 1017.24 1017.12 1017.00 1016.92 1016.88 1016.80 1016.64 1016.44 1016.24 1015.96 1015.64 1015.52 1015.32 1015.16 1015.12 1015.00 1014.88 1014.84 1014.64 1014.56 1014.48 1014.44 1014.44 1014.24 1014.00 1013.60 1013.16
1020.48 1020.56 1020.68 1020.72 1020.68 1020.52 1020.32 1020.28 1020.28 1020.16 1019.76 1019.40 1019.12 1018.84 1018.68 1018.44 1018.60 1018.72 1018.76 1018.92 1019.16 1019.12 1019.08 1018.84 1018.64 1018.52 1018.36 1018.28 1018.28 1018.20 1018.12 1018.08 1017.92 1017.64 1017.44 1017.24 1017.04 1016.84 1016.68 1016.64 1016.56 1016.56 1016.52 1016.44 1016.36 1016.04 1015.68 1015.56 1015.40 1015.32 1015.16 1015.08 1015.12 1014.96 1014.88 1014.76 1014.60 1014.48 1014.32 1014.12 1013.92 1013.44 1013.04
1020.64 1020.68 1020.92 1021.04 1021.04 1020.76 1020.52 1020.44 1020.32 1020.16 1019.72 1019.36 1019.12 1018.92 1018.68 1018.72 1018.84 1018.88 1018.96 1019.16 1019.24 1019.24 1019.08 1019.00 1018.84 1018.56 1018.44 1018.28 1018.36 1018.28 1018.20 1018.08 1017.84 1017.72 1017.68 1017.56 1017.36 1017.20 1017.00 1016.80 1016.60 1016.40 1016.20 1016.08 1015.96 1015.76 1015.48 1015.28 1015.48 1015.32 1015.08 1015.16 1015.20 1015.24 1015.12 1014.88 1014.72 1014.52 1014.28 1014.08 1013.64 1013.44 1013.20
1020.72 1020.84 1021.00 1021.08 1020.92 1020.64 1020.40 1020.20 1020.16 1019.96 1019.64 1019.40 1019.20 1018.96 1018.80 1018.72 1018.92 1018.88 1018.92 1019.04 1019.16 1019.28 1019.24 1019.16 1019.08 1018.88 1018.68 1018.48 1018.44 1018.24 1018.24 1018.20 1018.08 1017.92 1017.84 1017.72 1017.56 1017.28 1017.04 1016.80 1016.64 1016.52 1016.36 1016.08 1015.80 1015.60 1015.36 1015.28 1015.32 1015.20 1015.04 1015.08 1015.08 1015.08 1014.96 1014.80 1014.64 1014.48 1014.24 1014.00 1013.64 1013.36 1013.20
1020.72 1020.80 1020.80 1020.68 1020.64 1020.48 1020.28 1020.00 1020.00 1019.92 1019.68 1019.48 1019.28 1019.00 1018.84 1018.68 1018.76 1018.84 1018.88 1019.00 1019.08 1019.12 1019.00 1018.92 1018.80 1018.68 1018.56 1018.52 1018.44 1018.32 1018.20 1018.16 1018.08 1018.08 1017.96 1017.76 1017.52 1017.28 1017.08 1016.84 1016.64 1016.48 1016.32 1016.16 1015.92 1015.72 1015.48 1015.24 1015.12 1015.00 1014.84 1014.76 1014.72 1014.60 1014.44 1014.20 1013.92 1013.72 1013.60 1013.52 1013.32 1012.76 1012.40
1020.64 1020.52 1020.48 1020.44 1020.48 1020.48 1020.28 1020.00 1019.96 1020.04 1019.88 1019.64 1019.36 1019.08 1018.92 1018.80 1018.64 1018.56 1018.72 1018.88 1018.96 1018.88 1018.68 1018.60 1018.56 1018.56 1018.48 1018.32 1018.28 1018.20 1018.20 1018.16 1018.04 1017.92 1017.76 1017.56 1017.40 1017.32 1017.28 1016.96 1016.72 1016.56 1016.40 1016.16 1015.88 1015.60 1015.28 1015.00 1014.76 1014.52 1014.28 1014.12 1014.00 1013.92 1014.04 1014.04 1013.76 1013.32 1013.08 1013.04 1012.76 1012.12 1011.92
1020.56 1020.40 1020.32 1020.36 1020.44 1020.44 1020.44 1020.12 1019.96 1020.04 1019.96 1019.72 1019.40 1019.16 1019.04 1018.76 1018.56 1018.60 1018.60 1018.56 1018.44 1018.36 1018.20 1018.16 1018.32 1018.40 1018.44 1018.32 1018.20 1018.12 1018.08 1017.96 1017.80 1017.68 1017.56 1017.56 1017.56 1017.52 1017.32 1016.88 1016.64 1016.48 1016.20 1016.08 1015.88 1015.68 1015.40 1015.16 1014.92 1014.68 1014.52 1014.32 1014.20 1014.12 1014.12 1014.20 1013.96 1013.52 1013.56 1013.44 1012.76 1012.28 1011.64
1020.52 1020.40 1020.24 1020.20 1020.32 1020.32 1020.44 1020.12 1019.88 1019.84 1019.84 1019.64 1019.28 1019.04 1018.88 1018.60 1018.44 1018.40 1018.32 1018.24 1018.16 1018.04 1017.96 1017.88 1018.00 1018.20 1018.20 1018.12 1018.00 1017.96 1017.88 1017.68 1017.64 1017.72 1017.68 1017.68 1017.52 1017.24 1016.96 1016.60 1016.40 1016.32 1016.16 1016.00 1015.84 1015.60 1015.40 1015.04 1014.80 1014.60 1014.36 1014.08 1013.92 1013.84 1013.76 1013.68 1013.48 1013.36 1013.36 1013.00 1012.56 1012.28 1012.08
1020.44 1020.52 1020.28 1020.08 1020.08 1020.04 1020.00 1020.00 1019.76 1019.64 1019.60 1019.48 1019.20 1019.00 1018.88 1018.72 1018.60 1018.48 1018.40 1018.40 1018.20 1018.00 1017.88 1017.80 1017.76 1017.72 1017.84 1017.88 1017.88 1017.84 1017.76 1017.68 1017.64 1017.64 1017.48 1017.36 1017.12 1016.80 1016.60 1016.24 1016.20 1016.16 1016.12 1016.00 1015.84 1015.56 1015.32 1015.08 1014.76 1014.60 1014.24 1014.00 1013.80 1013.64 1013.52 1013.32 1013.16 1013.00 1012.80 1012.60 1012.36 1012.12 1011.96
1020.68 1020.52 1020.32 1019.96 1019.84 1019.72 1019.68 1019.64 1019.68 1019.52 1019.48 1019.36 1019.24 1019.04 1018.96 1018.80 1018.60 1018.52 1018.48 1018.40 1018.28 1018.04 1017.80 1017.52 1017.32 1017.16 1017.24 1017.48 1017.68 1017.72 1017.68 1017.52 1017.32 1017.20 1017.08 1016.92 1016.76 1016.56 1016.40 1016.36 1016.28 1016.04 1015.96 1015.76 1015.56 1015.32 1015.00 1014.64 1014.20 1013.92 1013.64 1013.36 1013.16 1012.92 1012.72 1012.60 1012.48 1012.44 1012.40 1012.24 1012.00 1011.72 1011.48
1020.68 1020.32 1020.00 1019.68 1019.52 1019.40 1019.40 1019.24 1019.40 1019.32 1019.24 1019.16 1019.04 1018.92 1018.88 1018.80 1018.64 1018.56 1018.56 1018.48 1018.20 1017.92 1017.64 1017.44 1017.20 1017.04 1017.12 1017.44 1017.56 1017.52 1017.40 1017.20 1017.04 1016.92 1016.80 1016.64 1016.48 1016.36 1016.32 1016.24 1016.00 1015.80 1015.60 1015.40 1015.08 1014.80 1014.48 1014.16 1013.84 1013.52 1013.20 1012.92 1012.68 1012.52 1012.36 1012.24 1012.08 1012.00 1011.96 1011.88 1011.72 1011.56 1011.44
1020.44 1020.16 1019.76 1019.40 1018.96 1018.68 1018.72 1018.84 1018.88 1018.96 1018.96 1018.88 1018.84 1018.76 1018.72 1018.72 1018.64 1018.56 1018.44 1018.28 1018.08 1017.80 1017.52 1017.20 1017.12 1017.04 1017.16 1017.24 1017.20 1017.12 1016.96 1016.80 1016.72 1016.68 1016.52 1016.36 1016.24 1016.08 1016.04 1015.96 1015.76 1015.52 1015.36 1015.08 1014.80 1014.48 1014.20 1013.92 1013.60 1013.28 1012.92 1012.64 1012.44 1012.20 1012.08 1011.92 1011.80 1011.72 1011.68 1011.60 1011.48 1011.32 1011.16
1019.32 1019.32 1019.20 1019.04 1018.52 1018.20 1018.04 1018.16 1018.20 1018.32 1018.56 1018.60 1018.60 1018.56 1018.48 1018.44 1018.36 1018.32 1018.20 1018.00 1017.76 1017.48 1017.28 1017.12 1017.00 1016.92 1017.00 1016.96 1016.88 1016.80 1016.68 1016.56 1016.52 1016.36 1016.20 1016.12 1016.00 1015.92 1015.84 1015.68 1015.44 1015.24 1015.00 1014.76 1014.52 1014.24 1013.96 1013.60 1013.20 1012.92 1012.64 1012.44 1012.20 1012.00 1011.80 1011.64 1011.52 1011.40 1011.44 1011.40 1011.28 1011.16 1011.00
1018.76 1018.68 1018.56 1018.40 1018.28 1017.92 1017.68 1017.68 1017.80 1017.88 1017.96 1018.24 1018.28 1018.28 1018.24 1018.12 1018.08 1018.00 1017.96 1017.84 1017.48 1017.36 1017.16 1017.04 1017.00 1016.96 1016.92 1016.84 1016.76 1016.64 1016.56 1016.32 1016.12 1016.00 1015.88 1015.80 1015.72 1015.68 1015.52 1015.28 1015.04 1014.80 1014.60 1014.44 1014.20 1013.88 1013.52 1013.16 1012.92 1012.60 1012.32 1012.16 1012.12 1012.00 1011.88 1011.68 1011.40 1011.24 1011.16 1011.08 1011.00 1010.76 1010.56
1018.36 1018.28 1018.20 1018.12 1017.84 1017.64 1017.44 1017.48 1017.52 1017.56 1017.60 1017.76 1017.88 1017.92 1017.88 1017.80 1017.76 1017.72 1017.64 1017.56 1017.32 1017.16 1017.08 1017.00 1016.96 1016.88 1016.76 1016.64 1016.48 1016.28 1016.04 1015.76 1015.56 1015.56 1015.56 1015.60 1015.60 1015.48 1015.20 1014.92 1014.68 1014.52 1014.36 1014.20 1013.88 1013.60 1013.28 1012.88 1012.56 1012.32 1012.08 1011.96 1011.84 1011.72 1011.48 1011.24 1011.04 1010.76 1010.56 1010.48 1010.32 1010.16 1009.92
1018.08 1017.84 1017.60 1017.44 1017.48 1017.40 1017.36 1017.32 1017.20 1017.16 1017.16 1017.24 1017.32 1017.24 1017.16 1017.32 1017.28 1017.32 1017.32 1017.24 1016.96 1016.88 1016.76 1016.68 1016.64 1016.52 1016.36 1016.20 1016.04 1015.92 1015.80 1015.68 1015.56 1015.44 1015.20 1015.00 1014.84 1014.68 1014.56 1014.44 1014.32 1014.24 1014.08 1013.88 1013.64 1013.36 1013.04 1012.72 1012.44 1012.16 1012.00 1011.80 1011.48 1011.24 1010.96 1010.80 1010.68 1010.44 1010.24 1010.12 1010.04 1009.88 1009.68
1017.64 1017.48 1017.28 1017.16 1017.08 1017.12 1017.12 1017.12 1016.92 1016.84 1016.88 1017.00 1016.96 1017.00 1017.00 1016.96 1016.92 1016.88 1016.76 1016.64 1016.56 1016.52 1016.48 1016.44 1016.28 1016.12 1015.84 1015.60 1015.48 1015.32 1015.16 1015.00 1014.80 1014.72 1014.68 1014.56 1014.40 1014.32 1014.28 1014.28 1014.28 1014.20 1014.00 1013.80 1013.52 1013.24 1012.92 1012.64 1012.36 1012.12 1011.84 1011.60 1011.36 1011.04 1010.76 1010.56 1010.40 1010.20 1010.08 1009.96 1009.96 1009.84 1009.56
1017.24 1017.12 1017.04 1017.16 1017.12 1017.04 1016.80 1016.76 1016.72 1016.56 1016.68 1016.96 1017.08 1017.16 1017.00 1016.84 1016.64 1016.44 1016.40 1016.36 1016.44 1016.48 1016.36 1016.16 1015.88 1015.60 1015.36 1015.16 1015.04 1014.88 1014.72 1014.52 1014.36 1014.32 1014.24 1014.36 1014.40 1014.20 1014.00 1013.80 1013.60 1013.44 1013.16 1012.96 1012.84 1012.68 1012.48 1012.32 1012.16 1011.96 1011.72 1011.48 1011.20 1010.88 1010.60 1010.32 1010.08 1009.88 1009.88 1009.84 1009.80 1009.72 1009.40
1017.44 1017.08 1017.00 1017.08 1016.96 1016.92 1016.84 1016.52 1016.24 1016.40 1016.72 1016.84 1016.84 1016.80 1016.76 1016.68 1016.60 1016.52 1016.44 1016.40 1016.40 1016.36 1016.16 1015.80 1015.52 1015.16 1014.92 1014.72 1014.56 1014.44 1014.32 1014.16 1014.04 1014.00 1013.96 1013.76 1013.76 1013.80 1013.64 1013.40 1013.20 1013.00 1012.84 1012.64 1012.56 1012.40 1012.28 1012.16 1012.00 1011.88 1011.64 1011.40 1011.08 1010.68 1010.36 1010.08 1009.96 1009.80 1009.68 1009.72 1009.64 1009.52 1009.24
1017.28 1017.24 1017.24 1017.20 1016.88 1016.60 1016.64 1016.56 1016.52 1016.52 1016.52 1016.48 1016.48 1016.44 1016.40 1016.32 1016.28 1016.24 1016.24 1016.20 1016.20 1015.96 1015.64 1015.28 1014.96 1014.64 1014.44 1014.36 1014.20 1014.12 1014.00 1013.96 1013.92 1013.88 1013.76 1013.60 1013.40 1013.28 1013.16 1013.12 1013.00 1012.72 1012.52 1012.44 1012.32 1012.20 1012.04 1011.96 1011.88 1011.76 1011.52 1011.28 1010.92 1010.64 1010.32 1009.92 1009.60 1009.48 1009.48 1009.44 1009.36 1009.24 1009.00
1016.80 1016.76 1016.76 1016.76 1016.72 1016.60 1016.32 1016.20 1016.20 1016.20 1016.20 1016.16 1016.16 1016.12 1016.08 1016.00 1015.96 1015.92 1015.92 1015.92 1015.92 1015.72 1015.28 1014.96 1014.60 1014.24 1014.00 1013.88 1013.84 1013.80 1013.80 1013.76 1013.68 1013.56 1013.48 1013.36 1013.28 1013.08 1012.80 1012.72 1012.56 1012.40 1012.44 1012.32 1012.24 1012.12 1011.96 1011.76 1011.60 1011.40 1011.16 1010.96 1010.76 1010.60 1010.32 1009.96 1009.60 1009.28 1009.16 1009.08 1008.92 1008.80 1008.68
1016.32 1016.36 1016.32 1016.24 1016.20 1016.16 1016.08 1015.92 1015.92 1015.96 1015.92 1015.92 1015.84 1015.80 1015.76 1015.72 1015.68 1015.64 1015.60 1015.68 1015.52 1015.12 1014.68 1014.36 1014.04 1013.76 1013.64 1013.64 1013.60 1013.52 1013.48 1013.40 1013.32 1013.24 1013.16 1013.00 1012.88 1012.72 1012.52 1012.36 1012.32 1012.48 1012.56 1012.40 1012.20 1012.00 1011.76 1011.52 1011.28 1011.08 1010.92 1010.80 1010.64 1010.48 1010.20 1009.84 1009.52 1009.12 1008.88 1008.72 1008.60 1008.40 1008.40
1015.96 1015.96 1015.88 1015.84 1015.84 1015.80 1015.80 1015.76 1015.72 1015.68 1015.68 1015.64 1015.60 1015.56 1015.48 1015.44 1015.28 1015.16 1015.12 1015.12 1014.84 1014.48 1014.12 1013.80 1013.56 1013.40 1013.36 1013.32 1013.28 1013.20 1013.12 1013.08 1012.96 1012.84 1012.76 1012.64 1012.52 1012.44 1012.32 1012.24 1012.28 1012.28 1012.12 1011.92 1011.72 1011.52 1011.28 1011.12 1010.96 1010.80 1010.68 1010.40 1010.20 1010.00 1009.84 1009.64 1009.36 1009.04 1008.80 1008.56 1008.32 1008.20 1008.04
1014.80 1015.12 1015.56 1015.52 1015.44 1015.44 1015.56 1015.56 1015.52 1015.48 1015.40 1015.36 1015.32 1015.28 1015.24 1015.16 1014.88 1014.52 1014.24 1014.20 1014.16 1014.00 1013.72 1013.44 1013.24 1013.08 1013.00 1012.92 1012.84 1012.76 1012.68 1012.60 1012.56 1012.52 1012.40 1012.28 1012.20 1012.08 1012.00 1011.92 1011.84 1011.72 1011.60 1011.48 1011.28 1011.08 1010.92 1010.72 1010.64 1010.48 1010.32 1010.20 1010.00 1009.80 1009.60 1009.28 1009.08 1008.84 1008.64 1008.44 1008.28 1008.08 1007.96
1014.84 1014.80 1014.96 1015.24 1015.20 1015.20 1015.28 1015.28 1015.24 1015.16 1015.08 1015.00 1014.96 1014.96 1015.00 1014.76 1014.20 1013.84 1013.56 1013.40 1013.24 1013.20 1013.08 1013.00 1012.80 1012.68 1012.56 1012.48 1012.44 1012.40 1012.32 1012.24 1012.20 1012.12 1012.08 1011.96 1011.92 1011.80 1011.68 1011.60 1011.44 1011.32 1011.24 1011.16 1011.04 1010.84 1010.68 1010.56 1010.40 1010.20 1010.00 1009.80 1009.60 1009.60 1009.52 1009.32 1009.08 1008.84 1008.60 1008.48 1008.36 1008.12 1007.92
Thickness
5352 5354 5355 5355 5354 5354 5353 5352 5352 5351 5351 5350 5349 5348 5347 5347 5346 5345 5345 5344 5343 5342 5340 5339 5338 5336 5335 5333 5334 5334 5333 5334 5333 5333 5333 5332 5333 5333 5334 5335 5335 5343 5355 5354 5349 5350 5351 5349 5348 5349 5349 5349 5349 5348 5346 5346 5346 5346 5345 5345 5346 5347 5348
5339 5341 5342 5343 5342 5342 5342 5341 5341 5340 5340 5339 5337 5336 5335 5335 5335 5335 5335 5334 5334 5332 5331 5331 5329 5328 5326 5325 5325 5324 5324 5325 5325 5325 5325 5325 5326 5327 5327 5328 5329 5333 5342 5346 5343 5342 5343 5343 5342 5344 5345 5343 5343 5343 5342 5341 5341 5341 5341 5341 5341 5343 5344
5326 5327 5329 5329 5330 5331 5331 5331 5331 5330 5329 5327 5326 5325 5325 5325 5325 5325 5325 5324 5323 5322 5321 5321 5320 5319 5318 5317 5317 5316 5316 5316 5316 5317 5318 5318 5318 5319 5320 5321 5322 5324 5330 5335 5335 5334 5334 5335 5336 5339 5339 5337 5337 5338 5337 5337 5337 5336 5336 5336 5335 5337 5339
5314 5316 5317 5317 5317 5318 5319 5319 5320 5319 5317 5316 5315 5315 5315 5315 5316 5315 5314 5313 5312 5311 5310 5309 5309 5309 5308 5307 5307 5307 5308 5308 5309 5309 5309 5310 5310 5310 5312 5312 5313 5316 5320 5324 5328 5328 5326 5327 5330 5331 5330 5328 5329 5330 5330 5330 5330 5330 5330 5329 5329 5330 5331
5303 5304 5305 5305 5305 5305 5306 5306 5307 5307 5306 5305 5305 5305 5305 5305 5305 5304 5304 5303 5302 5301 5300 5299 5298 5297 5297 5297 5297 5298 5299 5300 5300 5299 5300 5301 5301 5301 5302 5303 5304 5306 5309 5313 5319 5320 5317 5317 5321 5322 5321 5320 5319 5320 5320 5321 5321 5321 5321 5321 5322 5322 5323
5292 5293 5294 5294 5293 5293 5292 5293 5293 5294 5294 5294 5295 5295 5295 5295 5295 5295 5294 5294 5293 5292 5291 5290 5289 5288 5287 5286 5287 5287 5289 5289 5289 5289 5290 5290 5291 5291 5291 5293 5294 5295 5297 5301 5306 5309 5307 5307 5309 5310 5312 5311 5308 5309 5310 5310 5312 5313 5313 5313 5313 5314 5315
5280 5282 5282 5282 5282 5281 5281 5281 5282 5283 5283 5284 5285 5285 5285 5285 5285 5285 5285 5284 5284 5283 5282 5281 5279 5279 5278 5277 5277 5278 5279 5279 5279 5280 5280 5281 5281 5281 5280 5282 5283 5284 5286 5290 5294 5297 5297 5297 5298 5300 5302 5301 5298 5298 5300 5299 5299 5302 5304 5304 5304 5307 5308
5270 5270 5270 5270 5271 5271 5270 5270 5271 5272 5272 5273 5275 5275 5276 5276 5275 5275 5275 5274 5274 5273 5272 5271 5270 5269 5268 5268 5268 5268 5268 5269 5270 5271 5272 5272 5272 5271 5270 5272 5273 5274 5277 5279 5283 5287 5288 5287 5288 5291 5292 5291 5289 5288 5290 5289 5288 5291 5295 5295 5295 5300 5302
5260 5261 5260 5261 5261 5260 5260 5260 5260 5260 5260 5262 5264 5265 5265 5265 5264 5265 5264 5264 5263 5261 5260 5260 5260 5259 5259 5257 5258 5257 5257 5258 5258 5259 5260 5262 5262 5261 5260 5261 5262 5264 5266 5269 5272 5277 5278 5277 5279 5281 5279 5279 5279 5278 5278 5278 5276 5281 5285 5283 5285 5292 5295
5250 5251 5250 5250 5250 5250 5250 5249 5248 5248 5248 5251 5253 5254 5255 5254 5254 5254 5253 5252 5250 5249 5249 5249 5247 5247 5247 5247 5247 5247 5247 5247 5247 5247 5248 5248 5249 5249 5249 5249 5249 5251 5253 5255 5259 5264 5265 5265 5269 5270 5267 5267 5269 5267 5265 5265 5265 5268 5272 5270 5272 5282 5286
5241 5241 5240 5239 5239 5239 5240 5240 5238 5238 5239 5241 5242 5243 5244 5244 5245 5244 5242 5239 5238 5237 5237 5237 5236 5236 5236 5235 5235 5235 5235 5235 5235 5236 5236 5236 5237 5236 5236 5237 5237 5238 5240 5241 5244 5249 5250 5251 5254 5255 5252 5252 5254 5252 5251 5253 5251 5253 5257 5257 5258 5269 5276
5231 5230 5229 5228 5227 5228 5228 5228 5227 5227 5228 5229 5230 5231 5232 5234 5234 5232 5229 5227 5225 5224 5225 5224 5224 5224 5224 5223 5223 5222 5222 5222 5222 5223 5224 5224 5225 5224 5225 5225 5224 5225 5226 5227 5230 5234 5237 5238 5238 5238 5237 5237 5237 5237 5238 5239 5238 5239 5242 5243 5245 5253 5262
5220 5219 5217 5216 5215 5215 5216 5215 5214 5214 5215 5217 5218 5219 5221 5223 5222 5219 5217 5214 5212 5211 5211 5212 5212 5212 5212 5211 5210 5209 5209 5208 5209 5210 5211 5211 5212 5212 5213 5212 5212 5213 5213 5214 5216 5220 5224 5225 5222 5222 5225 5223 5221 5221 5223 5223 5225 5225 5226 5229 5233 5239 5245
5209 5208 5206 5205 5204 5204 5204 5204 5203 5203 5204 5206 5206 5207 5209 5210 5209 5206 5204 5202 5199 5199 5199 5199 5199 5199 5199 5199 5197 5196 5195 5195 5196 5198 5198 5198 5198 5199 5199 5199 5199 5200 5199 5201 5202 5206 5211 5212 5208 5209 5211 5210 5206 5206 5207 5208 5209 5210 5211 5215 5221 5225 5230
5198 5196 5195 5194 5194 5194 5194 5193 5193 5193 5193 5194 5194 5195 5196 5197 5196 5195 5193 5191 5188 5187 5186 5186 5186 5186 5186 5186 5185 5183 5182 5182 5182 5183 5184 5184 5184 5185 5185 5185 5186 5185 5185 5187 5189 5191 5196 5197 5195 5194 5197 5196 5193 5191 5193 5194 5195 5197 5199 5200 5205 5211 5216
5188 5186 5185 5184 5184 5184 5183 5182 5182 5182 5182 5181 5182 5182 5184 5184 5184 5183 5181 5179 5177 5176 5175 5174 5173 5173 5173 5173 5172 5171 5170 5169 5170 5170 5170 5171 5172 5172 5173 5173 5173 5171 5172 5173 5175 5178 5180 5182 5182 5182 5183 5183 5182 5180 5181 5181 5183 5188 5189 5188 5192 5201 5207
5176 5176 5175 5174 5173 5172 5171 5170 5169 5169 5169 5169 5169 5169 5170 5171 5172 5171 5170 5166 5165 5165 5165 5164 5162 5161 5161 5161 5160 5159 5158 5157 5157 5158 5158 5159 5159 5159 5160 5160 5159 5159 5160 5161 5162 5164 5167 5168 5169 5170 5170 5171 5169 5168 5166 5164 5170 5177 5176 5173 5180 5190 5196
5166 5165 5165 5163 5161 5159 5159 5158 5157 5157 5156 5156 5156 5157 5158 5159 5159 5159 5157 5156 5155 5154 5154 5153 5151 5148 5148 5148 5148 5147 5146 5145 5145 5146 5146 5146 5146 5146 5147 5148 5147 5148 5149 5149 5149 5151 5152 5154 5156 5156 5157 5158 5156 5154 5151 5149 5154 5161 5158 5157 5165 5174 5179
5155 5154 5153 5152 5150 5149 5147 5147 5147 5145 5145 5145 5145 5145 5146 5147 5148 5147 5146 5144 5144 5143 5142 5142 5140 5137 5136 5136 5136 5136 5135 5134 5133 5133 5133 5133 5133 5135 5136 5135 5135 5136 5137 5136 5136 5137 5138 5140 5142 5142 5143 5144 5143 5141 5139 5137 5140 5143 5142 5143 5149 5155 5158
5143 5143 5142 5141 5140 5139 5137 5137 5136 5134 5134 5133 5133 5133 5133 5134 5135 5135 5133 5132 5131 5131 5130 5129 5128 5127 5126 5125 5125 5124 5123 5122 5121 5121 5121 5121 5122 5123 5124 5123 5123 5123 5123 5122 5123 5123 5123 5126 5128 5128 5129 5130 5129 5128 5128 5127 5127 5128 5128 5130 5134 5138 5140
5132 5132 5132 5130 5130 5129 5127 5126 5125 5124 5122 5121 5121 5121 5121 5121 5122 5122 5121 5120 5120 5119 5119 5118 5118 5118 5116 5113 5112 5112 5110 5110 5109 5109 5110 5110 5110 5111 5111 5110 5110 5110 5110 5109 5110 5111 5112 5113 5115 5116 5116 5117 5117 5117 5117 5117 5116 5115 5114 5115 5118 5122 5124
5121 5121 5122 5122 5120 5119 5118 5117 5116 5114 5112 5111 5111 5110 5109 5109 5109 5108 5108 5108 5109 5108 5107 5107 5106 5106 5104 5101 5100 5099 5098 5098 5097 5097 5098 5098 5098 5097 5097 5096 5097 5098 5097 5097 5098 5099 5100 5101 5101 5103 5103 5103 5103 5103 5102 5103 5104 5103 5101 5100 5101 5103 5106
5112 5112 5113 5113 5112 5111 5110 5108 5108 5106 5103 5102 5100 5100 5098 5097 5096 5095 5095 5096 5097 5097 5096 5096 5095 5093 5091 5089 5088 5088 5087 5087 5086 5085 5085 5085 5085 5085 5084 5083 5084 5084 5084 5084 5085 5086 5087 5087 5087 5088 5089 5089 5088 5088 5088 5090 5090 5089 5087 5086 5087 5087 5088
5106 5105 5105 5105 5103 5102 5101 5100 5099 5097 5094 5091 5090 5089 5088 5086 5085 5084 5084 5084 5085 5085 5085 5085 5084 5083 5081 5079 5077 5076 5075 5074 5074 5074 5073 5073 5072 5071 5071 5070 5071 5071 5070 5071 5072 5072 5073 5074 5075 5076 5077 5076 5075 5075 5075 5076 5076 5076 5074 5073 5074 5074 5075
5098 5097 5096 5095 5094 5093 5092 5091 5089 5087 5084 5082 5081 5079 5077 5076 5075 5073 5072 5073 5073 5073 5073 5073 5072 5071 5069 5067 5065 5065 5064 5064 5064 5063 5062 5061 5060 5059 5058 5058 5059 5059 5059 5059 5060 5060 5062 5063 5063 5064 5064 5064 5063 5062 5062 5062 5063 5064 5063 5061 5061 5064 5065
5090 5089 5088 5086 5085 5084 5083 5081 5079 5077 5075 5073 5071 5070 5067 5066 5064 5063 5061 5061 5061 5061 5061 5061 5060 5059 5057 5056 5055 5054 5054 5054 5054 5053 5052 5051 5049 5049 5049 5049 5050 5049 5049 5050 5050 5051 5052 5053 5053 5053 5053 5051 5050 5050 5050 5050 5051 5052 5052 5051 5050 5053 5056
5080 5080 5079 5078 5076 5075 5073 5071 5069 5067 5066 5063 5062 5061 5058 5056 5054 5052 5050 5050 5050 5050 5050 5050 5049 5047 5046 5045 5045 5045 5045 5045 5045 5044 5043 5043 5042 5042 5042 5041 5041 5041 5040 5040 5041 5041 5041 5042 5042 5041 5041 5040 5040 5040 5039 5039 5038 5039 5040 5040 5039 5040 5044
5071 5070 5069 5068 5066 5065 5063 5061 5059 5057 5055 5053 5051 5049 5047 5045 5043 5041 5040 5040 5040 5040 5039 5039 5038 5037 5037 5037 5037 5037 5038 5038 5038 5038 5037 5036 5035 5035 5034 5033 5032 5032 5031 5032 5031 5031 5032 5032 5031 5031 5030 5029 5029 5030 5029 5028 5027 5028 5029 5027 5026 5028 5031
5061 5059 5057 5056 5055 5054 5052 5051 5049 5046 5043 5041 5038 5036 5034 5033 5031 5030 5030 5029 5028 5028 5029 5028 5028 5028 5029 5029 5030 5031 5031 5032 5031 5031 5031 5029 5027 5027 5026 5025 5025 5025 5025 5024 5024 5023 5023 5022 5020 5020 5019 5019 5019 5019 5018 5018 5018 5018 5018 5017 5015 5016 5018
5047 5046 5044 5043 5042 5041 5040 5039 5038 5034 5031 5029 5027 5024 5023 5021 5019 5019 5018 5018 5017 5018 5019 5019 5020 5021 5021 5022 5023 5024 5024 5024 5024 5023 5022 5021 5020 5019 5019 5018 5018 5017 5017 5016 5015 5014 5013 5012 5010 5009 5008 5008 5008 5009 5009 5008 5008 5008 5008 5007 5006 5007 5008
5035 5033 5030 5030 5030 5030 5028 5027 5025 5023 5021 5019 5017 5014 5012 5011 5011 5010 5010 5009 5009 5010 5012 5012 5013 5014 5015 5016 5016 5017 5016 5016 5015 5014 5014 5014 5013 5012 5011 5010 5010 5010 5009 5007 5006 5004 5003 5002 5002 5001 5000 5000 5000 5000 5000 5000 5000 5000 4999 4999 4998 4998 4999
5025 5022 5020 5019 5019 5019 5018 5017 5016 5014 5012 5010 5008 5005 5004 5004 5003 5003 5002 5000 5001 5003 5005 5005 5007 5009 5010 5009 5010 5009 5008 5008 5008 5007 5007 5006 5005 5005 5004 5004 5003 5002 5000 4998 4997 4996 4996 4996 4995 4995 4995 4993 4992 4992 4991 4991 4992 4993 4992 4992 4992 4991 4992
5014 5013 5011 5010 5009 5008 5008 5008 5007 5005 5004 5001 4999 4998 4997 4997 4996 4996 4994 4993 4994 4997 4999 5000 5002 5003 5004 5003 5003 5003 5002 5002 5002 5002 5001 5001 5001 4999 4999 4997 4996 4994 4992 4991 4991 4991 4991 4990 4990 4989 4989 4988 4987 4986 4985 4985 4985 4986 4986 4986 4986 4986 4985
5006 5003 5002 5000 4999 4998 4998 4998 4998 4996 4995 4993 4991 4990 4989 4989 4990 4989 4988 4988 4989 4992 4994 4995 4997 4998 4998 4997 4997 4997 4997 4998 4998 4997 4997 4997 4996 4995 4994 4992 4990 4989 4988 4988 4988 4987 4988 4987 4986 4985 4984 4983 4982 4982 4981 4980 4980 4979 4980 4980 4980 4979 4979
4998 4995 4992 4990 4990 4989 4988 4989 4989 4988 4987 4985 4983 4983 4983 4983 4985 4986 4985 4986 4987 4988 4990 4991 4992 4993 4993 4993 4993 4994 4994 4994 4994 4993 4993 4993 4992 4991 4990 4989 4988 4987 4986 4986 4985 4985 4985 4984 4983 4982 4980 4979 4978 4977 4976 4976 4975 4975 4974 4974 4974 4974 4973
4989 4987 4984 4981 4981 4980 4980 4981 4981 4981 4979 4978 4977 4977 4977 4979 4982 4983 4984 4984 4985 4986 4987 4987 4988 4989 4989 4989 4990 4990 4990 4991 4990 4990 4989 4989 4988 4988 4987 4986 4986 4985 4984 4983 4983 4982 4981 4980 4979 4979 4977 4976 4975 4974 4973 4972 4971 4970 4970 4969 4968 4968 4968